[Date Prev][Date Next][Thread Prev][Thread Next] - [Date Index][Thread Index][Author Index]

2 Line ISS Keps 10-11



ISS
1 25544U 98067A   05283.98616878  .00019163  00000-0  13610-3 0  5250
2 25544 051.6453 027.7197 0001563 090.2596 063.1187 15.73933454393909
----
Via the sarex mailing list at AMSAT.ORG courtesy of AMSAT-NA.
To unsubscribe, send "unsubscribe sarex" to Majordomo@amsat.org



AMSAT Top AMSAT Home